GFSNW_sfc_rhum_141.txt.gz
RH
81 77 78 83 84 86 82 95 97 90 96 100 99 97 69 65 54 46 47 54 61 67 68 57 82 55 45 42 42 45 50 64 59 45 38 54 56 55 61 75 79 88 89 87
80 79 78 81 86 83 91 97 99 95 90 96 99 90 75 61 57 52 51 53 56 66 81 73 70 62 52 50 45 50 52 58 59 39 59 50 60 67 73 82 85 87 86 84
81 81 79 80 85 82 87 97 99 100 99 83 76 80 84 78 62 59 52 56 60 69 70 66 70 65 57 54 47 62 59 64 60 64 60 56 65 58 58 65 90 77 77 73
81 80 80 79 80 84 87 94 94 86 98 98 84 74 75 78 72 64 60 60 59 68 77 70 75 68 61 54 53 61 64 80 73 68 64 64 66 72 64 64 66 77 71 64
80 80 80 79 80 86 95 98 88 81 79 82 79 80 79 75 67 67 64 68 64 61 60 56 64 61 62 63 57 61 63 82 83 85 62 61 71 78 70 64 66 67 62 64
79 80 80 79 79 85 99 97 82 76 81 83 81 78 78 74 70 66 58 61 64 67 63 59 56 57 58 56 59 65 66 73 79 70 57 61 70 76 75 55 54 54 60 51
81 79 81 79 80 74 97 99 83 81 89 84 81 70 66 72 70 62 67 68 68 63 54 57 58 64 65 68 68 62 73 75 73 72 73 80 64 46 52 58 53 55 55 62
87 84 82 81 81 78 87 98 96 84 92 75 74 74 74 70 68 72 69 63 61 63 61 67 81 74 71 65 62 69 65 68 87 92 69 60 52 44 55 74 58 48 60 72
89 81 86 82 82 82 93 90 98 98 90 82 66 73 73 80 81 78 75 66 67 67 75 74 80 76 70 67 53 61 68 66 84 93 84 75 52 54 60 62 62 66 68 73
81 79 82 80 81 80 93 92 91 98 100 82 71 79 77 73 77 74 75 79 82 74 89 85 80 63 66 68 59 64 77 81 88 83 83 60 53 61 61 76 70 70 69 68
80 81 82 82 86 86 94 93 90 95 100 97 81 68 79 81 78 80 78 87 92 89 89 78 79 88 73 68 55 54 52 70 82 76 84 79 66 69 76 73 71 72 70 70
81 82 80 80 80 81 87 99 86 92 97 99 92 85 82 72 64 79 86 75 83 84 78 84 78 85 84 66 81 52 72 54 67 64 62 69 75 75 72 73 71 72 70 68
79 80 81 83 83 82 82 98 98 97 99 100 98 92 74 70 68 68 83 90 78 91 87 100 99 94 87 80 73 69 59 63 78 74 73 71 77 78 81 76 73 71 68 72
77 78 78 78 79 79 81 98 96 91 97 98 88 74 72 66 64 68 72 77 85 85 88 96 97 82 74 83 68 66 57 73 78 89 78 78 74 78 82 80 74 74 71 71
76 76 77 77 75 75 87 96 96 94 84 97 91 86 77 69 68 72 74 78 84 93 92 97 86 89 86 81 88 87 70 72 86 79 70 71 77 84 82 83 81 77 77 74
76 72 71 72 77 76 96 100 98 90 94 98 90 83 90 83 78 76 79 80 86 89 94 95 95 84 86 97 87 58 56 61 63 73 78 88 97 87 78 83 81 79 77 66
77 75 75 74 79 93 99 97 94 88 95 97 89 84 79 80 86 91 89 81 90 90 88 98 83 80 82 93 84 55 60 62 72 73 82 94 90 89 77 75 76 79 76 58
76 75 76 79 82 87 95 96 89 84 92 89 96 91 92 87 96 98 93 95 91 92 90 89 88 85 86 97 66 60 55 72 82 83 73 73 79 79 77 76 78 85 80 72
76 76 77 84 95 100 99 89 86 94 87 95 87 91 93 86 92 96 98 94 98 86 93 85 86 80 96 82 74 69 76 78 78 80 81 84 85 82 81 81 79 83 81 76
78 86 99 100 99 86 94 99 100 100 96 94 86 83 94 89 98 98 92 100 96 94 87 92 98 81 63 61 65 62 77 78 79 90 95 92 91 88 90 85 79 78 81 85
99 100 99 99 84 97 100 98 98 96 98 94 84 82 82 88 96 94 93 97 94 94 86 93 91 91 71 58 58 64 78 76 75 72 74 77 78 86 89 85 81 81 84 90
94 91 87 89 89 98 94 96 95 96 76 95 92 89 81 96 92 98 99 96 98 94 83 95 92 81 63 73 78 86 82 79 77 74 79 80 79 82 80 78 83 86 88 92
88 92 99 90 92 96 100 100 98 97 97 93 94 96 92 94 96 98 99 98 93 84 95 91 85 77 83 89 89 88 82 81 81 84 84 83 84 78 76 90 92 93 94 94
93 96 99 82 98 94 91 82 88 86 91 91 85 97 91 94 98 96 97 93 91 97 97 87 84 85 92 91 88 87 95 93 93 94 91 90 89 91 92 90 92 93 95 94
90 93 74 98 88 93 93 82 72 92 92 85 85 88 84 94 96 95 89 98 91 90 89 86 94 94 94 95 91 93 94 95 95 94 93 94 93 92 95 95 94 92 94 92
94 97 98 95 94 95 99 97 96 94 85 81 86 89 98 95 92 98 96 90 89 86 91 96 95 97 96 95 94 94 94 94 95 94 93 92 92 92 93 92 91 93 91 91
98 96 100 96 97 96 98 96 96 86 78 83 91 97 90 88 95 95 84 92 88 97 96 96 95 95 96 96 95 95 94 94 93 93 91 93 92 92 86 90 90 84 84 90

GFSNW_sfc_rhum_144.txt.gz
RH
82 80 79 78 83 85 86 95 97 90 95 98 96 84 54 56 42 40 41 46 48 49 52 43 74 32 31 33 31 33 35 40 34 28 21 30 32 32 40 62 52 63 92 85
80 80 79 79 82 85 72 93 92 95 83 100 98 94 63 50 46 42 43 46 48 52 68 81 41 38 44 37 26 27 39 36 35 25 33 40 40 43 44 47 63 74 88 90
80 79 78 80 81 83 58 89 100 99 99 79 84 95 82 63 48 47 44 45 49 49 48 43 55 46 47 42 30 61 40 33 39 38 38 36 46 38 36 42 88 68 61 65
87 80 77 79 82 81 56 73 79 59 96 98 81 77 76 68 65 49 46 48 45 47 58 47 48 42 45 42 44 40 38 53 45 40 36 38 40 44 40 38 42 57 66 47
89 82 79 79 79 81 88 96 63 65 49 57 68 67 60 58 55 56 54 54 44 45 42 39 45 42 42 37 38 43 47 69 80 84 44 42 52 71 48 46 45 47 42 46
87 83 80 80 80 79 97 68 55 47 61 58 66 62 52 53 52 54 42 51 47 51 41 43 39 35 35 33 41 49 50 49 60 49 32 39 55 73 73 43 32 36 46 38
84 85 82 81 83 81 97 78 49 56 75 55 54 47 48 53 53 54 49 52 50 47 41 44 46 43 42 44 41 38 44 47 46 50 44 70 49 29 28 32 31 30 31 30
80 82 82 82 84 83 86 94 73 45 70 54 59 57 55 51 51 52 50 52 44 44 43 44 42 47 52 46 41 39 40 46 62 68 48 41 33 28 32 38 40 33 43 40
88 79 80 82 84 80 92 75 93 74 58 57 52 58 55 58 55 63 57 53 48 47 39 43 48 36 34 42 52 46 43 54 68 63 79 63 32 27 39 40 54 47 48 52
91 87 81 82 84 86 94 96 88 97 97 56 53 56 61 52 55 44 53 64 62 51 54 60 46 43 36 45 39 62 66 66 80 70 68 45 27 40 44 70 64 53 50 51
91 90 91 86 92 89 88 98 82 90 100 87 60 54 62 59 51 53 72 73 75 66 68 50 45 48 40 42 34 37 44 50 65 56 66 68 42 55 58 56 57 54 53 55
91 91 89 91 89 85 82 98 73 77 89 98 79 70 64 53 41 45 67 62 59 56 54 45 44 57 57 45 61 34 54 36 42 43 42 43 48 45 42 52 50 51 64 53
86 87 90 90 87 82 76 95 94 88 88 87 82 79 62 58 53 55 62 68 62 66 70 92 91 86 56 60 52 47 43 37 60 58 58 38 37 39 51 52 64 58 54 57
79 80 79 82 85 81 77 83 93 90 76 86 71 51 65 53 55 54 57 64 67 66 68 74 73 73 55 58 48 48 42 46 53 63 50 47 45 48 54 60 62 61 55 56
82 81 80 78 77 79 83 84 86 83 70 94 73 67 54 51 56 57 64 60 67 76 77 81 73 59 61 52 52 58 39 49 69 74 50 52 57 58 64 69 66 58 60 62
80 79 78 77 77 80 71 100 83 81 87 96 85 63 65 59 59 57 58 54 63 77 76 74 60 48 59 66 62 41 37 37 41 53 43 66 90 71 66 69 64 59 59 56
79 78 77 77 79 73 76 80 83 79 85 98 88 64 59 56 61 66 66 66 73 76 87 92 60 62 69 79 73 44 36 34 33 31 43 68 66 65 63 60 59 64 56 52
78 78 78 80 79 77 77 81 84 82 97 96 94 76 76 66 72 76 67 71 74 77 73 59 64 57 67 80 42 35 31 30 34 37 49 51 56 59 62 58 62 68 61 55
78 78 78 84 91 99 78 84 87 91 77 90 86 72 76 70 69 71 91 88 98 62 85 67 64 65 84 58 42 36 34 36 40 45 56 59 64 62 63 65 66 65 62 60
78 82 96 100 98 85 87 97 100 100 98 71 68 48 80 65 70 76 82 90 85 84 67 50 84 75 47 35 34 33 38 37 48 68 75 70 70 70 70 69 64 63 66 69
98 100 98 96 83 91 98 99 98 97 96 76 52 47 67 65 78 75 78 89 86 82 61 76 69 64 57 41 40 38 36 38 52 52 54 60 62 69 71 71 66 66 68 80
94 87 93 96 96 99 96 93 91 79 60 66 61 50 40 69 72 70 95 90 82 87 79 94 73 51 37 39 43 41 44 45 56 57 61 63 65 66 70 72 72 74 78 88
86 67 96 75 82 96 94 92 77 77 70 77 73 83 58 78 85 90 91 100 92 71 93 75 63 52 54 60 63 67 62 64 64 64 66 66 69 70 76 92 96 92 93 92
70 82 92 83 90 73 70 57 61 63 74 76 66 74 65 68 96 100 99 80 86 94 91 65 64 71 78 75 76 76 99 100 99 100 99 100 98 97 98 95 92 94 94 93
63 64 62 76 63 74 76 68 67 73 75 75 78 83 73 72 91 89 67 95 87 75 72 74 86 89 86 91 84 94 99 100 100 100 99 96 94 92 94 92 90 90 93 92
64 81 95 82 87 100 100 99 95 80 78 73 66 94 96 82 71 90 88 69 71 74 79 91 87 97 100 100 100 100 100 100 100 97 94 92 92 91 92 89 89 90 89 90
60 98 98 99 97 99 100 98 83 76 77 92 67 87 73 63 77 80 68 86 85 92 91 89 95 100 100 100 99 96 97 98 96 94 90 90 88 86 81 85 88 79 80 84

GFSNW_sfc_rhum_150.txt.gz
RH
86 87 85 84 82 81 84 79 98 89 81 100 99 98 62 57 46 38 34 33 35 36 38 36 41 30 24 20 21 27 23 34 38 22 17 14 15 22 25 55 42 50 74 76
84 86 87 84 82 82 70 87 90 96 94 98 97 69 69 59 54 51 44 38 33 32 52 71 37 33 28 22 24 25 28 33 38 27 19 14 20 22 21 28 44 59 81 85
85 83 85 85 86 80 87 92 99 100 100 80 65 70 64 68 55 58 41 36 35 46 53 39 51 39 34 28 22 53 34 27 28 44 33 24 34 30 21 30 79 61 58 50
83 85 83 86 88 84 85 94 95 82 98 95 79 65 57 68 81 50 42 50 44 47 56 42 37 32 35 34 45 27 24 40 29 22 20 22 23 25 27 26 29 42 49 35
79 83 84 85 89 90 97 99 61 62 60 64 79 82 74 75 48 64 86 51 42 34 40 35 39 32 30 36 34 31 27 60 65 67 35 28 32 44 26 28 32 35 33 36
74 78 84 86 88 91 98 82 59 58 71 55 87 80 65 52 48 56 66 62 46 38 28 24 24 25 29 26 31 38 38 42 51 56 30 25 40 62 55 29 25 27 35 29
72 76 83 86 92 93 96 72 66 74 75 54 66 58 64 77 81 69 83 68 62 53 30 33 35 33 31 30 27 26 34 40 45 54 42 60 43 20 21 23 22 20 19 19
77 75 79 83 87 90 96 80 77 66 72 38 46 53 45 41 74 93 74 53 41 47 37 41 41 42 37 32 28 29 29 40 55 63 49 35 25 21 24 28 30 23 24 31
78 78 80 83 83 94 94 95 81 69 56 50 28 36 46 80 99 95 70 50 39 40 42 42 45 41 35 34 29 24 26 39 53 56 58 56 35 20 24 27 45 35 37 43
78 82 81 82 89 91 94 94 85 86 82 43 42 49 51 52 75 78 56 56 55 53 60 58 44 45 25 37 35 53 45 44 62 65 62 41 23 21 27 51 57 45 40 39
74 75 82 84 89 91 95 96 85 80 89 65 49 42 53 48 50 60 58 64 57 58 60 46 43 46 35 33 22 31 46 55 63 58 63 65 25 31 44 41 37 32 33 42
75 80 84 85 92 92 92 98 84 77 91 98 75 54 44 38 40 60 64 51 43 42 48 41 37 47 44 34 56 23 46 36 52 43 51 50 42 50 42 34 35 40 44 43
79 83 85 93 92 92 90 95 88 94 95 94 84 64 51 42 40 52 69 52 48 47 43 80 76 57 34 54 46 41 32 25 48 52 43 30 34 30 30 31 39 38 41 48
82 84 87 92 90 91 86 93 75 65 60 92 92 58 48 38 41 41 46 53 53 56 59 74 72 68 40 53 43 55 51 47 45 53 42 34 30 33 39 42 40 38 44 46
85 88 89 93 93 89 82 90 77 55 54 80 79 61 46 44 46 44 43 53 59 75 78 78 70 46 50 43 46 54 35 44 70 78 55 52 48 48 46 45 44 42 43 50
91 88 92 92 90 86 93 100 90 58 57 75 91 51 52 49 50 50 50 49 53 68 75 62 49 43 56 75 62 40 34 33 34 43 36 44 56 49 36 43 43 44 49 47
92 90 90 94 90 94 95 79 68 64 47 78 81 69 50 48 50 54 54 54 60 64 69 68 56 53 54 75 76 45 38 32 29 27 28 35 29 34 32 31 43 52 47 46
89 90 91 86 80 75 86 72 69 58 50 48 75 72 63 47 64 72 50 64 67 66 62 54 53 48 59 78 47 40 35 33 32 31 28 29 26 25 24 44 48 53 54 51
85 81 82 76 62 85 95 75 70 62 57 65 68 70 78 46 56 55 68 69 85 52 71 62 56 65 74 53 40 36 34 33 32 26 24 23 27 26 32 48 52 58 60 62
72 56 77 100 92 81 74 73 96 96 64 49 59 41 75 50 64 72 72 72 71 70 56 47 72 69 48 39 34 32 34 31 30 37 38 34 36 44 50 54 59 62 69 68
68 99 98 79 80 56 75 93 87 80 78 50 44 39 49 42 74 73 57 79 65 64 51 58 61 64 59 42 40 37 36 35 34 32 33 32 34 55 67 70 73 73 70 72
76 73 76 74 68 76 72 75 66 65 51 44 49 43 35 52 54 71 74 70 66 64 62 74 79 61 35 34 38 40 43 44 44 35 32 34 49 57 69 71 73 75 73 87
51 56 78 64 72 77 72 78 64 70 57 54 58 69 53 67 69 83 82 91 82 62 81 64 57 45 43 52 53 57 61 74 62 48 51 61 68 73 73 87 94 92 92 89
69 84 85 70 81 63 56 48 59 61 60 70 61 68 74 74 84 97 75 63 53 66 68 54 61 78 80 71 71 69 95 98 99 99 100 100 100 100 99 97 93 93 95 92
65 55 59 59 56 59 68 70 66 61 64 70 76 80 73 71 86 65 57 64 66 52 52 62 87 87 82 85 88 95 100 100 100 100 100 100 99 98 98 98 95 91 94 93
61 52 66 64 74 98 99 98 96 76 77 73 71 78 77 74 64 57 58 42 49 61 75 91 83 95 97 100 100 100 100 100 100 100 98 98 97 96 98 97 95 93 91 90
56 90 95 94 82 94 100 92 80 69 76 82 54 67 59 60 61 52 52 70 71 86 95 90 86 96 100 100 100 100 96 98 96 96 92 96 94 92 92 95 96 90 91 92

GFSNW_sfc_rhum_153.txt.gz
RH
87 87 86 86 85 86 91 93 100 96 86 100 97 92 74 61 48 44 47 48 53 52 50 51 59 50 38 27 30 35 36 54 54 31 22 20 22 26 32 79 59 82 85 84
83 87 87 86 85 89 96 99 97 99 97 97 95 77 75 64 60 52 61 63 52 48 61 70 66 52 40 32 34 37 34 50 66 40 29 25 25 25 28 40 66 75 88 84
79 83 87 86 86 91 97 99 100 100 100 93 83 78 76 75 57 61 55 63 63 65 64 58 78 63 51 40 37 50 44 42 49 63 50 36 43 39 48 55 92 82 76 62
77 80 83 87 86 87 97 99 99 82 98 95 97 85 69 71 74 59 61 65 76 63 79 66 64 52 49 41 48 36 34 46 44 46 44 36 35 40 44 41 46 58 64 51
76 78 80 85 88 85 99 99 99 91 78 80 93 91 85 78 63 59 70 76 78 61 73 53 52 43 53 55 48 42 35 73 65 74 42 40 43 52 45 37 38 41 39 44
71 74 79 81 85 89 98 98 95 98 88 78 91 85 77 71 68 62 60 84 90 97 78 50 46 39 46 44 52 54 48 68 73 74 41 43 59 60 51 36 33 38 48 39
71 74 78 79 83 88 97 97 92 96 99 84 76 73 68 70 68 83 75 86 87 75 64 58 42 41 37 43 41 41 56 55 64 75 64 80 57 30 27 32 31 28 28 46
72 77 79 79 80 85 98 98 93 97 98 79 69 64 68 65 62 89 82 78 77 83 78 88 76 68 49 46 41 40 38 55 77 80 74 56 42 30 33 37 38 31 48 50
74 76 79 80 78 77 94 97 95 95 98 89 52 56 63 79 90 99 91 68 74 88 98 86 85 83 57 47 35 31 36 51 72 83 77 76 53 29 31 35 66 50 51 53
75 74 76 78 78 77 90 96 93 99 99 88 58 66 70 88 95 98 90 82 80 79 98 81 69 69 36 52 51 60 57 65 67 75 76 67 36 26 38 67 72 55 49 54
75 73 77 80 80 78 89 94 94 98 100 90 83 62 85 87 88 97 93 94 74 78 83 78 66 64 52 51 41 49 61 68 71 76 79 80 37 39 57 61 62 55 54 60
76 75 76 72 74 78 82 99 92 94 99 98 89 80 69 85 69 82 75 74 65 71 74 66 60 66 65 48 63 35 70 64 73 57 72 62 63 62 55 51 49 56 61 64
75 77 72 73 73 80 85 96 97 98 99 96 87 79 67 52 62 63 82 76 61 66 76 91 92 72 57 76 71 55 52 43 72 71 59 57 56 53 50 53 54 57 60 63
72 72 73 72 75 80 82 97 95 94 90 98 92 68 69 52 49 53 58 68 68 73 80 84 90 86 62 77 68 75 74 66 72 73 64 56 50 52 60 55 54 58 58 59
73 73 74 75 76 82 90 96 91 85 83 98 98 74 62 53 56 52 61 67 78 90 88 92 87 72 70 74 68 80 53 60 88 88 64 68 66 62 57 57 56 53 59 65
76 77 77 78 83 90 97 100 97 93 85 95 98 74 68 66 62 66 64 67 72 88 90 87 75 60 86 99 95 59 51 47 47 55 48 55 61 62 52 52 59 57 61 61
82 81 82 82 88 95 97 98 93 83 85 94 95 91 66 64 66 75 76 69 81 85 90 89 80 73 73 96 86 58 51 45 43 45 47 51 45 51 41 48 53 61 60 60
86 91 92 93 92 93 96 93 80 78 74 72 94 92 85 67 87 88 75 86 86 86 87 81 79 74 83 93 64 52 47 44 45 45 42 43 40 38 35 54 64 67 69 67
88 89 86 89 95 100 98 77 78 79 76 93 94 95 97 72 81 81 86 88 97 82 96 87 78 89 90 75 58 48 45 47 46 42 42 40 44 41 37 58 70 73 75 75
86 81 89 99 99 80 80 84 91 93 87 71 86 79 96 76 87 94 95 95 96 96 87 76 95 83 56 47 42 40 42 40 44 54 55 51 50 50 70 71 75 75 80 81
93 99 92 87 81 85 94 97 95 95 89 77 70 69 88 72 91 96 90 97 94 95 81 86 92 93 70 49 48 46 46 44 42 41 44 50 51 54 77 82 82 85 82 80
87 84 89 94 92 92 84 93 90 86 71 74 70 68 69 77 79 92 92 92 92 92 79 90 89 81 48 52 71 73 86 86 81 75 68 58 46 62 81 83 86 86 86 87
74 83 87 84 90 88 83 96 90 94 89 84 82 82 76 86 87 95 94 99 97 86 92 88 88 64 81 82 77 88 92 93 97 97 85 82 85 84 84 91 89 89 92 91
91 87 93 87 93 89 89 87 91 86 90 84 80 83 82 96 94 94 91 91 89 91 94 73 90 91 91 90 91 93 98 97 96 97 98 98 96 96 92 91 90 93 97 94
80 77 81 81 88 91 90 91 85 83 77 82 86 84 82 98 97 93 86 88 83 79 77 84 99 95 94 96 96 97 93 98 99 97 98 98 97 98 98 96 95 94 93 92
83 73 83 91 91 92 96 97 94 86 86 87 89 96 98 96 94 83 80 72 75 79 98 99 99 100 92 92 100 99 99 99 99 98 98 98 98 98 98 96 95 94 92 93
83 95 97 96 95 95 98 98 97 84 92 99 98 98 83 83 89 78 85 87 91 99 98 99 95 96 98 100 99 99 98 99 98 98 98 98 97 94 94 98 98 94 93 95